Regional Weather Roundup
Issued by NWS

Home | Current Version | Previous Version | Graphics & Text | Print | Product List | Glossary On
Versions: 1 2 3 4 5 6 7 8 9 10 11 12 13 14 15 16 17 18 19 20 21 22 23 24 25 26 27 28 29 30 31 32 33 34 35 36 37 38 39 40 41 42 43 44 45 46 47 48 49 50
000
ASUS43 KMKX 260221
RWRWI

WISCONSIN REGIONAL WEATHER ROUNDUP
NATIONAL WEATHER SERVICE MILWAUKEE/SULLIVAN WI
900 PM CDT SUN SEP 25 2016

NOTE: "FAIR" INDICATES FEW OR NO CLOUDS BELOW 12,000 FEET WITH NO
SIGNIFICANT WEATHER AND/OR OBSTRUCTIONS TO VISIBILITY.

WIZ001-002-006>008-014>016-023>028-260300-
NORTHWEST WISCONSIN

CITY           SKY/WX    TMP DP  RH WIND       PRES   REMARKS
SUPERIOR ARPT  CLOUDY    56  51  82 W15G21    29.82R
ASHLAND        CLOUDY    58  53  84 SW14      29.81S
HAYWARD        LGT RAIN  55  51  86 SW9G17    29.87R
SIREN          CLOUDY    56  50  80 W12       29.90R
CUMBERLAND     CLOUDY    54  50  87 W15G21    29.92R
RICE LAKE      CLOUDY    56  52  86 W12G17    29.93R
CHETEK         NOT AVBL
LADYSMITH      CLOUDY    57  55  94 SW9       29.90S
EAU CLAIRE     CLOUDY    59  52  77 W12       29.93R
MENOMONIE      CLOUDY    56  56  99 W18G26    29.95R
NEW RICHMOND   MOCLDY    55  49  81 W9        29.96R
OSCEOLA        MOCLDY    56  47  71 W9        29.98R
$$

WIZ003>005-009-010-017-018-260300-
NORTH CENTRAL WISCONSIN

CITY           SKY/WX    TMP DP  RH WIND       PRES   REMARKS
MANITOWISH WTR NOT AVBL
ARBOR VITAE    CLOUDY    59  54  82 SW5       29.85S
WOODRUFF       CLOUDY    59  54  82 SW5       29.85S
RHINELANDER    MOCLDY    59  54  83 W10       29.87R
EAGLE RIVER    CLOUDY    58  55  88 W8        29.84S
LAND O LAKES   CLOUDY    59  54  82 W6        29.85S
PHILLIPS       CLOUDY    58  53  86 SW10      29.86R
TOMAHAWK       CLOUDY    58  51  78 SW3       29.88S
MEDFORD        LGT RAIN  57  57 100 W13G22    29.90R
MERRILL        MOCLDY    59  53  81 W7        29.89R
$$

WIZ029-030-035-036-043>047-260300-
CENTRAL WISCONSIN

CITY           SKY/WX    TMP DP  RH WIND       PRES   REMARKS
WAUSAU         MOCLDY    60  51  72 W9        29.88R
MOSINEE        PTCLDY    59  55  88 W12       29.91R
MARSHFIELD     LGT RAIN  58  53  84 W16G31    29.92R
STEVENS POINT  CLOUDY    61  54  78 W8        29.91R
WAUPACA        CLOUDY    65  56  72 SW8       29.90S
WAUTOMA        CLOUDY    64  55  72 W9        29.92R
WISC RAPIDS    CLOUDY    62  55  77 W8        29.93R
CAMP DOUGLAS   CLOUDY    62  54  73 W13G22    29.94R
$$

WIZ011>013-019>022-031-037>040-048>050-260300-
NORTHEAST WISCONSIN

CITY           SKY/WX    TMP DP  RH WIND       PRES   REMARKS
ANTIGO         CLOUDY    58  55  89 CALM      29.88S
SHAWANO        CLOUDY    65  59  82 W6        29.87R
OCONTO         NOT AVBL
STURGEON BAY   LGT RAIN  66  65  96 S9        29.84S
GREEN BAY      LGT RAIN  66  65  96 W12       29.87R
MANITOWOC      CLOUDY    68  66  93 SW6       29.86S
APPLETON       CLOUDY    64  57  77 W17       29.88R
CLINTONVILLE   NOT AVBL
OSHKOSH        CLOUDY    66  59  78 W9        29.89R
$$

WIZ032>034-041-042-053>061-260300-
SOUTHWEST WISCONSIN

CITY           SKY/WX    TMP DP  RH WIND       PRES   REMARKS
LA CROSSE      CLOUDY    63  53  70 W16       29.97R
SPARTA         CLOUDY    58  55  88 W10       29.97R
VIROQUA        CLOUDY    59  53  78 W12G18    29.99R
BOSCOBEL       CLOUDY    65  52  62 W9        29.99R
PRAIRIE DU CHI CLOUDY    62  51  65 W14G20    30.01R
PLATTEVILLE    CLOUDY    63  53  71 W14G21    30.01R
$$

WIZ056-057-062-063-064-067-068-260300-
SOUTH CENTRAL WISCONSIN

CITY           SKY/WX    TMP DP  RH WIND       PRES   REMARKS
REEDSBURG      NOT AVBL
BARABOO/DELLS  CLOUDY    63  51  66 W9        29.95R
LONE ROCK      CLOUDY    64  53  67 W12       29.98R
MINERAL POINT  CLOUDY    63  54  72 W10       29.99R
MADISON        CLOUDY    65  53  65 VRB5      29.96R
MIDDLETON      CLOUDY    64  54  68 W8        29.97R
WATERTOWN      DRIZZLE   66  58  75 W12G17    29.93R
MONROE         CLOUDY    63  52  67 W13       29.99R
JANESVILLE     MOCLDY    66  55  68 W16G23    29.97R
$$

WIZ051-052-058>065-066-070>072-260300-
SOUTHEAST WISCONSIN

CITY           SKY/WX    TMP DP  RH WIND       PRES   REMARKS
MILWAUKEE      LGT RAIN  73  69  87 W13       29.89R
WAUKESHA       CLOUDY    68  64  88 W14       29.92R
MILWAUKEE/TIMM MOCLDY    70  66  88 SW3       29.89R
RACINE         RAIN      71  69  93 W12       29.91R
BURLINGTON     CLOUDY    68  60  76 W17       29.94R
KENOSHA        CLOUDY    72  69  90 W14G20    29.91R
FOND DU LAC    CLOUDY    67  58  72 W10       29.90R
SHEBOYGAN      LGT RAIN  68  66  93 W5        29.87S
WEST BEND      LGT RAIN  68  63  83 W9        29.89S
JUNEAU         CLOUDY    66  57  74 W9G20     29.94R
$$

LSZ147-162-260300-
LAKE SUPERIOR

STATION/POSITION TIME  TEMP    WIND        PRES    WAVE
                       AIR SEA DIR/SP/G            HT/PER
                 (UTC) (F)     (DEG/KT/KT) (MB)    (FT/S)
W MID LAKE BUOY  0150   62 61  230/ 19/ 25 1006.6S   5/ 6
DEVILS ISLAND    0200   59     230/ 18/ 21 1007.9F
SAXON HARBOR     0140   62     250/  4/  9 1009.1S
$$

LMZ867-665-643>646-260300-
LAKE MICHIGAN

STATION/POSITION TIME  TEMP    WIND        PRES    WAVE
                       AIR SEA DIR/SP/G            HT/PER
                 (UTC) (F)     (DEG/KT/KT) (MB)    (FT/S)
CHAMBERS ISLAND  0100   67     160/  6/ 12 1009.5F
N MID LAKE BUOY  0150   67 67  180/ 16/ 19 1010.0F   4/ 5
NORTHPORT PIER   0100   67     160/  7/ 12 1010.5S
KEWAUNEE LAKESHO 0100   67     200/ 10/ 12 1010.4F
SHEBOYGAN LAKESH 0200   69     220/  7/  7 1010.8S
PORT WASHINGTON  0100   68      CALM  /  2 1012.2F
ATWATER BUOY     0200   65 53  270/  6/  8 1011.8R
MILWAUKEE LAKESH 0210   72     260/ 10/ 12   N/A
S MID LAKE BUOY  0150   74 72  160/ 16/ 17 1011.0F   2/ 3
KENOSHA   LAKESH 0200   72     250/  6/  8 1012.2R
$$

TC  - TEMPERATURE IN CELSIUS
VSB - VISIBILITY IN STATUTE MILES
WCI - WIND CHILL INDEX
HX  - HEAT INDEX





USA.gov is the U.S. government's official web portal to all federal, state and local government web resources and services.